CZ-4C DEB, 43270

Orbit data source: Space-Track

CZ-4C DEB, 43270 is space debris in SSO originally from a launch on Sat, 31 Mar 2018 UTC launched from the Taiyaun Space Center, China (TSC). Debris objects in space refer to the collection of defunct objects orbiting the Earth. Examples of debris include non-operational satellites, rocket bodies, and fragments generated from explosions, collisions, or faulty payload assembly.

Loading next visibility...
Identifier
43270, 2018-031J
Orbit
SSO
Last TLE update
1 week ago
Origin
Manufacturer
Unknown
Mission
Spacecraft
Bus & Motor
Unknown
Mass
Unknown
Launch date (UTC)
2018-03-31 (7 years ago)
Launch vehicle
Unknown
Launch site
Taiyaun Space Center, China (TSC)
Object type
Payload
Rocket body
Debris
Shape & HBR
Unknown
Radar Cross Section
Small (<0.1 m²)

Expand to show TLE details & history

TLE from 1 week ago
0 CZ-4C DEB
1 43270U 18031J   25105.89968594  .00001801  00000-0  24621-3 0  9998
2 43270  97.7751 170.5367 0003979 227.5415 132.5461 14.79749160389737
Epoch: 2025-04-15T21:35Z
Definitive object data (Epoch: 2025-04-15T21:35:32.865Z)
Latitude
-0.00002°
Longitude
2.3561°
Altitude
635.027 km
Speed
7.54 km/s
True Right ascension
11h 22m 08s
True Declination
0° 00' 00"
Sunlit
Object was in full shadow at TLE epoch
Visualization TLE readout
Latitude
-81.03258°
Longitude
132.44491°
Altitude
657.248 km
Speed
7.528 km/s
Apparent Right ascension
12h 32m 00s
Apparent Declination
-68° 20' 04"
Sunlit
Object is in daylight
Visualization observer readout
Local Sidereal Time
23:44:10
Azimuth
189.038° SSW
Elevation
-60.85°
Doppler factor
1
Orbital elements
Apogee altitude
629.939 km
Perigee altitude
624.364 km
Semi-major axis
7,005.289 km
Eccentricity
0.0003979
Inclination
97.7751°
RAAN
170.5367°
Arg. of periapsis
227.5415°
True anomaly
132.57968°
Mean anomaly
132.5461°
Eccentric anomaly
132.56289°
Mean motion
3.70172 °/min
BSTAR
0.00024621
Orbital period
97.25 mins
Loading maneuver chart data...
Loading SW <> Apogee altitude chart data...
Loading historical data...
Loading historical data...
Loading historical data...
Loading historical data...
Loading historical data...
Loading historical data...
Loading historical data...

CZ-4C DEB Visibility forecast

Observer location: undefined°, undefined°

Span
Click to sort rows by Start time (UTC) header in descending order
Start Az.
Max El. time (UTC)
Max El. Az.
Max El.
End time (UTC)
End Az.
8 mins2025-04-25 17:27:52.703Z1.581° NNE2025-04-25 17:31:52.703Z291.678° WNW38.086°2025-04-25 17:35:52.703Z211.797° SW
7 mins2025-04-26 04:23:52.703Z175.725° S2025-04-26 04:26:52.703Z255.469° W43.705°2025-04-26 04:30:52.703Z343.011° N
5 mins2025-04-26 16:13:52.703Z58.522° ENE2025-04-26 16:15:52.703Z94.404° ESE20.426°2025-04-26 16:18:52.703Z142.088° SSE
|